Location: Darmstadt
(49.8706°N, 8.6494°E)
Time: 06:28:50
(UTC+01:00)

Cosmos 1346 Rocket - Pass Details

Date: 31 October 2020
Orbit: 535 x 543 km, 81.2° (Epoch: 03 December)

Event Time Altitude Azimuth Distance (km) Brightness Sun altitude
Rises 18:12:42 0° 350° (N) 2,719 6.4 -11.6°
Reaches altitude 10° 18:14:53 10° 353° (N) 1,822 5.5 -11.9°
Maximum altitude 18:18:53 67° 76° (ENE) 595 2.7 -12.5°
Drops below altitude 10° 18:22:51 10° 160° (SSE) 1,807 5.3 -13.2°
Sets 18:25:00 0° 163° (SSE) 2,694 6.2 -13.5°
